Погода в Тузле

Босния и Герцеговина     44°32′04″N   18°41′32″E
темп.,
°C
ветер,
м/с
пор.,
м/с
влажн.,
%
обл.,
%
осадки,
мм/ч
давл.,
гПа
погр.,
м
1 марта, пн
пн101:00+2юз11740 0.0 103322
04:00+1зюз11790 0.0 103222
07:00+1зюз12790 0.0 103222
10:00+6зсз34610 0.0 1032729
13:00+9ссз33520 0.0 10311154
16:00+8с44592 0.0 1031960
19:00+4св11721 0.0 103322
22:00+3вюв11807 0.0 103522
2 марта, вт
вт201:00+2юз01854 0.0 103622
04:00+1юв01870 0.0 103522
07:00+1ю11860 0.0 103622
10:00+7св11640 0.0 1035605
13:00+10св22470 0.0 1034938
16:00+10св22500 0.0 1033840
19:00+5в12680 0.0 103422
22:00+4ююв11720 0.0 103522
3 марта, ср
ср301:00+3ю11750 0.0 103422
04:00+2ююв11730 0.0 103322
07:00+2ю11680 0.0 103322
10:00+9всв12440 0.0 1032350
13:00+14всв22340 0.0 1030640
16:00+13всв22400 0.0 1028504
19:00+8в11600 0.0 102822
22:00+6ююз11650 0.0 102722
4 марта, чт
чт401:00+5ююз11650 0.0 102622
04:00+4ююз11672 0.0 102522
07:00+4ююз116418 0.0 102422
10:00+11з114376 0.0 1022275
13:00+15ссз213356 0.0 1020565
16:00+14с123882 0.0 1018295
19:00+9ю014892 0.0 101822
22:00+7ююз2248100 0.0 101823
5 марта, пт
пт501:00+5ююз225687 0.0 101824
04:00+4ююз22631 0.0 101724
07:00+4ююз226513 0.0 101725
10:00+11юз254487 0.0 1016642
13:00+14з343592 0.0 10161708
16:00+14з2446100 0.0 10151050
19:00+9юз1260100 0.0 101623
22:00+8ю126689 0.0 101723